This is the latest recevied weather packets stored in our database for station/object NA9VY-8. If no packets are shown the sender has not sent any weather packets the latest 10 day(s).
| Time | Temp. | Humidity | Pressure | Rain* | Wind** | Luminosity | Snow |
|---|---|---|---|---|---|---|---|
| 1777761357 | 12.22° C | 42% | 1021.9 hPa | 0 mm | - | 56 W/m² | - |
| 1777761056 | 12.22° C | 44% | 1021.8 hPa | 0 mm | - | 75 W/m² | - |
| 1777760753 | 12.22° C | 40% | 1021.9 hPa | 0 mm | - | 146 W/m² | - |
| 1777760449 | 12.78° C | 40% | 1021.7 hPa | 0 mm | - | 163 W/m² | - |
| 1777760145 | 13.33° C | 42% | 1021.8 hPa | 0 mm | - | 295 W/m² | - |
| 1777759842 | 13.33° C | 42% | 1021.9 hPa | 0 mm | - | 325 W/m² | - |
| 1777759538 | 13.33° C | 41% | 1021.9 hPa | 0 mm | - | 340 W/m² | - |
| 1777759235 | 12.78° C | 42% | 1021.8 hPa | 0 mm | - | 334 W/m² | - |
| 1777758932 | 12.78° C | 40% | 1021.8 hPa | 0 mm | - | 385 W/m² | - |
| 1777758629 | 12.78° C | 38% | 1021.6 hPa | 0 mm | - | 263 W/m² | - |
| 1777758326 | 12.78° C | 40% | 1021.7 hPa | 0 mm | - | 358 W/m² | - |
| 1777758023 | 13.33° C | 41% | 1021.8 hPa | 0 mm | - | 176 W/m² | - |
| 1777757720 | 12.78° C | 42% | 1021.5 hPa | 0 mm | - | 429 W/m² | - |
| 1777757418 | 12.22° C | 42% | 1021.8 hPa | 0 mm | - | 138 W/m² | - |
| 1777757116 | 12.78° C | 44% | 1021.7 hPa | 0 mm | - | 144 W/m² | - |
| 1777756814 | 12.22° C | 42% | 1021.7 hPa | 0 mm | - | 109 W/m² | - |
| 1777756509 | 12.78° C | 46% | 1021.8 hPa | 0 mm | - | 128 W/m² | - |
| 1777756207 | 12.78° C | 47% | 1021.8 hPa | 0 mm | - | 603 W/m² | - |
| 1777755903 | 12.78° C | 45% | 1021.7 hPa | 0 mm | - | 576 W/m² | - |
| 1777755600 | 12.78° C | 42% | 1021.7 hPa | 0 mm | - | 158 W/m² | - |
| 1777755296 | 12.78° C | 40% | 1021.7 hPa | 0 mm | - | 653 W/m² | - |
| 1777754994 | 12.22° C | 41% | 1021.8 hPa | 0 mm | - | 472 W/m² | - |
| 1777754691 | 13.33° C | 40% | 1021.6 hPa | 0 mm | - | 154 W/m² | - |
| 1777754389 | 13.33° C | 44% | 1021.5 hPa | 0 mm | - | 537 W/m² | - |
| 1777754086 | 12.78° C | 47% | 1021.8 hPa | 0 mm | - | 451 W/m² | - |
* Rain latest hour (hover to see other rain measurements)
** Current wind speed in m/s (hover to see current wind gust speed)